Location: Mascot Post Office (historical)
(40.2645°N, 99.5462°W)
Time: 01:44:32
(UTC+00:00)

Cosmos 2366 rocket - Pass Details

Date: 14 July 2020
Orbit: 954 x 998 km, 82.9° (Epoch: 14 August)

Event Time Altitude Azimuth Distance (km) Brightness Sun altitude
Exits shadow 05:48:23 45° 228° (SW) 1,327 4.4 -26.8°
Maximum altitude 05:50:04 59° 280° (W) 1,139 4.3 -26.9°
Drops below altitude 10° 05:56:20 10° 360° (N) 2,761 7.3 -27.1°
Sets 05:58:55 0° 4° (N) 3,708 8.2 -27.2°
